STARLINK-33672, 63326

Orbit data source: Space-Track

STARLINK-33672, 63326 is a payload satellite owned by SpaceX/Seattle (US) in LEO that was launched on Tue, 18 Mar 2025 UTC via an FALCON 9 launch vehicle from the Air Force Eastern Test Range (AFETR). Payload-class satellites include a variety of spacecraft equipped with specific instruments for various scientific and technological missions. These include communications satellites like Starlink; space stations such as the ISS; scientific satellites like the Hubble; Earth observation satellites from companies like Planet Labs, Umbra, and HawkEye 360; GPS; miniature CubeSats for education and research; and military/defense satellites.

Loading next visibility...
Identifier
63326, 2025-057V
Orbit
LEO
Country
Flag of USUS
Related business
Manufacturer
SpaceX/Seattle
Mission
Operational Commercial Communications
Bus & Motor
STARLINK V2MO, Unknown motor
Mass
575 kg wet, ~530 kg dry
Launch date (UTC)
2025-03-18 (6 months ago)
Launch vehicle
FALCON 9
Launch site
Air Force Eastern Test Range (AFETR)
Object type
Payload
Rocket body
Debris
Shape & HBR
Box + 1 Pan, 14.5 m
Radar Cross Section
41.120 m², Large (>1 m²)

Expand to show TLE details & history
Last TLE update: 10 hours ago

TLE from 10 hours ago
0 STARLINK-33672
1 63326U 25057V   25259.45728225  .00030222  00000-0  11026-2 0  9998
2 63326  43.0003 294.5664 0001349 278.3443  81.7256 15.27601945 29130
Epoch: 2025-09-16T10:58Z
TLE epoch observation values (Epoch: 2025-09-16T10:58:29.186Z)
Latitude
0.00001°
Longitude
134.29749°
Altitude
482.626 km
Speed
7.626 km/s
True Right ascension
19h 38m 15s
True Declination
0° 00' 00"
Sunlit
Object was in full shadow at epoch
Visualization orbit readout
Latitude
Unknown
Longitude
Unknown
Altitude
Unknown
Speed
Unknown
Apparent Right ascension
Unknown
Apparent Declination
Unknown
Sunlit
N/A
Visualization observer readout
Local Sidereal Time
13:59:54
Azimuth
Unknown
Elevation
Unknown
Doppler factor
Unknown
Orbital elements
Apogee altitude
485.854 km
Perigee altitude
484.003 km
Semi-major axis
6,863.066 km
Eccentricity
0.00013
Inclination
43.0003°
RAAN
294.5664°
Arg. of periapsis
278.3443°
True anomaly
81.7409°
Mean anomaly
81.7256°
Eccentric anomaly
81.73325°
Mean motion
3.81738 °/min
Orbital period
94.31 mins
BSTAR
0.0011026
Loading maneuver chart data...
Computing Atmospheric mass density...
Loading historical data...
Loading historical data...
Loading historical data...
Loading historical data...
Loading historical data...
Loading historical data...
Loading historical data...

Documentation

Showing up to 5 results
|